Ashland, WI

9:33 AM CST on November 12, 2019 (GMT -0600)
Kennedy Memorial

Weather History for KASX - October, 2019

Change the Weather History Date:

Tuesday, October 22, 2019

  Actual Average Record
Temperature  
Mean Temperature 43 °F 42 °F  
Max Temperature 47 °F 52 °F 82 °F (1908)
Min Temperature 38 °F 32 °F 15 °F (1913)
Degree Days  
Heating Degree Days 22 23  
Month to date heating degree days 395 415  
Since 1 July heating degree days 684 822  
Cooling Degree Days 0 0  
Month to date cooling degree days 0 0  
Year to date cooling degree days 253 237  
Moisture  
Dew Point 41 °F    
Average Humidity 87    
Maximum Humidity 92    
Minimum Humidity 82    
Precipitation  
Precipitation 0.03 in - 0.92 in (1938)
Sea Level Pressure  
Sea Level Pressure 29.26 in    
Wind  
Wind Speed 11 mph (WSW)    
Max Wind Speed 24 mph    
Max Gust Speed 39 mph    
Visibility 9 miles    
Events Rain    
T = Trace of Precipitation, MM = Missing Value Source: NWS Daily Summary

Daily Weather History Graph

Daily Weather History Graph

Search for Another Location

Airport or City:

Astronomy

Oct. 22, 2019 Rise Set
Actual Time 7:30 AM CDT 6:04 PM CDT
Civil Twilight 6:59 AM CDT 6:35 PM CDT
Nautical Twilight 6:24 AM CDT 7:10 PM CDT
Astronomical Twilight 5:49 AM CDT 7:45 PM CDT
Moon 12:10 AM CDT (10/22) 3:41 PM CDT (10/22)
Length of Visible Light 11h 35m
Length of Day
10h 34m
Last Quarter, 37% of the Moon is Illuminated
Oct 22
Last Quarter
Oct 27
New
Nov 4
First Quarter
Nov 12
Full
Nov 19
Last Quarter

Hourly Weather History & Observations

Time (CDT) Temp. Windchill Dew Point Humidity Pressure Visibility Wind Dir Wind Speed Gust Speed Precip Events Conditions
12:53 AM 46.9 °F - 43.0 °F 86% 29.22 in 10.0 mi South 6.9 mph - N/A   Overcast
1:53 AM 46.0 °F 44.8 °F 43.0 °F 89% 29.21 in 10.0 mi South 3.5 mph - N/A   Overcast
2:53 AM 45.0 °F 42.6 °F 42.1 °F 90% 29.21 in 10.0 mi South 4.6 mph - N/A   Overcast
3:53 AM 45.0 °F 42.6 °F 42.1 °F 90% 29.19 in 10.0 mi SSW 4.6 mph - N/A   Overcast
4:53 AM 45.0 °F - 42.1 °F 90% 29.18 in 10.0 mi Calm Calm - N/A   Overcast
5:12 AM 45.0 °F - 42.1 °F 90% 29.17 in 10.0 mi Calm Calm - N/A   Overcast
5:53 AM 44.1 °F - 42.1 °F 93% 29.18 in 10.0 mi Calm Calm - N/A   Overcast
6:31 AM 44.1 °F - 42.1 °F 93% 29.17 in 10.0 mi Calm Calm - N/A   Overcast
6:39 AM 44.1 °F - 42.1 °F 93% 29.17 in 10.0 mi Calm Calm - N/A   Overcast
6:53 AM 44.1 °F - 42.1 °F 93% 29.19 in 10.0 mi Calm Calm - N/A   Overcast
7:24 AM 43.0 °F - 42.1 °F 97% 29.17 in 10.0 mi Calm Calm - N/A   Overcast
7:39 AM 43.0 °F - 43.0 °F 100% 29.17 in 10.0 mi Calm Calm - N/A   Overcast
7:53 AM 44.1 °F - 42.1 °F 93% 29.18 in 10.0 mi Calm Calm - N/A   Overcast
8:12 AM 44.1 °F 41.5 °F 43.0 °F 96% 29.17 in 5.0 mi SW 4.6 mph - N/A   Overcast
8:32 AM 44.1 °F 40.8 °F 43.0 °F 96% 29.17 in 3.0 mi SW 5.8 mph - N/A   Overcast
8:39 AM 45.0 °F 41.2 °F 44.1 °F 97% 29.18 in 6.0 mi West 6.9 mph - N/A   Overcast
8:53 AM 44.1 °F 38.6 °F 43.0 °F 96% 29.19 in 4.0 mi West 10.4 mph - N/A   Overcast
9:53 AM 44.1 °F 39.0 °F 43.0 °F 96% 29.19 in 10.0 mi WSW 9.2 mph - N/A   Overcast
10:30 AM 45.0 °F 39.7 °F 42.1 °F 90% 29.19 in 9.0 mi WSW 10.4 mph - N/A   Overcast
10:53 AM 46.0 °F 39.9 °F 43.0 °F 89% 29.21 in 10.0 mi West 13.8 mph - N/A   Overcast
11:25 AM 45.0 °F 39.3 °F 42.1 °F 90% 29.21 in 10.0 mi West 11.5 mph 25.3 mph N/A   Overcast
11:53 AM 45.0 °F 38.2 °F 41.0 °F 86% 29.23 in 10.0 mi West 15.0 mph 24.2 mph 0.01 in   Overcast
12:53 PM 46.0 °F 39.6 °F 41.0 °F 83% 29.24 in 10.0 mi West 15.0 mph 26.5 mph N/A   Overcast
1:53 PM 44.1 °F 37.7 °F 39.9 °F 85% 29.27 in 10.0 mi West 12.7 mph 28.8 mph N/A   Overcast
2:53 PM 43.0 °F 36.0 °F 39.9 °F 89% 29.29 in 10.0 mi WSW 13.8 mph - N/A   Overcast
3:53 PM 43.0 °F 35.4 °F 39.0 °F 86% 29.33 in 8.0 mi WSW 16.1 mph 24.2 mph 0.00 in Rain Light Rain
4:53 PM 42.1 °F 33.6 °F 39.0 °F 89% 29.37 in 10.0 mi WSW 18.4 mph 28.8 mph 0.00 in   Overcast
5:53 PM 42.1 °F 33.1 °F 37.0 °F 82% 29.40 in 10.0 mi West 20.7 mph 39.1 mph N/A   Overcast
6:53 PM 41.0 °F 32.2 °F 37.0 °F 86% 29.43 in 10.0 mi West 18.4 mph 29.9 mph N/A   Overcast
7:53 PM 39.9 °F 31.4 °F 37.0 °F 89% 29.46 in 10.0 mi West 16.1 mph 24.2 mph N/A   Overcast
8:53 PM 39.0 °F 29.9 °F 36.0 °F 89% 29.48 in 10.0 mi WSW 17.3 mph 24.2 mph 0.01 in   Overcast
9:53 PM 39.0 °F 31.0 °F 36.0 °F 89% 29.50 in 10.0 mi WSW 13.8 mph 23.0 mph N/A   Overcast
10:53 PM 37.9 °F 29.2 °F 36.0 °F 93% 29.52 in 10.0 mi WSW 15.0 mph 25.3 mph 0.00 in   Overcast
11:53 PM 37.9 °F 29.2 °F 35.1 °F 89% 29.54 in 10.0 mi WSW 15.0 mph - 0.01 in   Overcast